Location: Chandolas
(44.4033°N, 4.2533°E)
Time: 05:23:30
(UTC+00:00)

Daily predictions for brighter satellites

Satellite Brightness Start Highest point End
(mag) Time Altitude Azimuth Time Altitude Azimuth Time Altitude Azimuth
Lacrosse 5 4.1 03:05:53 21° ENE 03:05:53 21° ENE 03:07:51 10° ENE
Cosmos 2082 Rocket 3.7 03:10:03 33° E 03:10:03 33° E 03:14:45 10° NE
Cosmos 1833 Rocket 3.7 03:30:39 40° NE 03:30:39 40° NE 03:34:15 10° NNE
USA 234 4.4 03:41:41 10° NE 03:47:10 30° N 03:47:41 29° NNW
Cosmos 1934 Rocket 4.0 03:47:42 78° NNE 03:47:42 78° NNE 03:53:39 10° N
Cosmos 1980 Rocket 2.8 03:48:15 45° NNE 03:49:32 55° ENE 03:55:05 10° SE
Cosmos 2322 Rocket 4.5 03:47:47 10° N 03:51:47 19° NE 03:55:47 10° E
PAYLOAD A 4.3 03:50:08 10° NNE 03:55:27 68° ESE 03:57:24 40° S
Cosmos 1076 Rocket 4.3 04:03:18 31° SSE 04:05:06 51° E 04:09:20 10° NNE
Cosmos 2369 4.3 04:11:03 41° SSW 04:11:03 41° SSW 04:14:56 10° S
Cosmos 1680 Rocket 3.6 04:08:35 52° N 04:09:52 76° ENE 04:15:10 10° SSE
SL-4 R/B 3.5 04:11:24 35° N 04:11:24 35° N 04:15:41 10° ENE
CZ-4C R/B 4.0 04:12:39 20° NNW 04:12:39 20° NNW 04:16:32 10° NNE
Cosmos 1356 Rocket 4.2 04:11:52 35° NNE 04:13:23 53° ENE 04:17:34 10° SSE
Gbstr 26 Del rocket 3.4 04:17:11 50° ESE 04:17:11 50° ESE 04:20:25 10° ENE
Cosmos 2123 Rocket 4.1 04:20:13 49° WSW 04:20:13 49° WSW 04:25:17 10° SSW
Meteor 1-31 Rocket 3.6 04:15:49 10° NNE 04:18:34 44° NNE 04:18:34 44° NNE
Meteor 2-2 Rocket 4.1 04:14:47 10° N 04:20:27 90° SW 04:26:05 10° S
Cosmos 2360 4.1 04:20:23 57° NW 04:21:29 72° WSW 04:27:11 10° SSE
SL-27 R/B 3.6 04:23:15 37° ENE 04:23:15 37° ENE 04:25:40 10° NNE
Meteor 1-27 4.2 04:20:39 40° NNW 04:22:40 65° W 04:28:27 10° S
BREEZE-M DEB (TANK) 4.3 04:18:37 30° WNW 04:26:26 76° NNE 04:31:09 10° E
Cosmos 1484 Rocket 4.2 04:22:41 10° NNE 04:26:28 39° E 04:30:15 10° SSE
Cosmos 990 Rocket 4.4 04:22:20 10° S 04:27:25 63° ESE 04:32:34 10° NNE
Cosmos 1869 3.3 04:28:33 61° NNE 04:29:08 76° E 04:33:03 10° SSE
Cosmos 2278 3.7 04:28:57 53° W 04:29:19 53° WSW 04:34:50 10° S
Cosmos 1697 Rocket 3.3 04:30:39 37° SW 04:30:39 37° SW 04:34:41 10° S
Cosmos 1892 4.2 04:28:01 10° SSE 04:31:30 36° E 04:35:00 10° NNE
Cosmos 1605 Rocket 3.9 04:26:29 10° SSW 04:32:38 64° W 04:38:44 10° N
NOSS 3-3 (A) 4.1 04:28:32 14° SSW 04:33:41 73° ESE 04:40:14 10° NE
NOSS 3-3 (C) 4.1 04:28:36 13° SSW 04:33:48 72° ESE 04:40:20 10° NE
Cosmos 923 Rocket 4.1 04:34:15 51° WSW 04:34:15 51° WSW 04:39:16 10° S
COSMOS 2455 3.7 04:31:30 14° NNW 04:36:32 48° NE 04:42:19 10° SE
Cosmos 839 Rocket 4.1 04:36:33 25° SW 04:40:54 65° NW 04:47:08 10° NNE
COSMO-SKYMED 1 3.1 04:37:00 10° SSE 04:41:15 60° ENE 04:45:33 10° N
MSX 4.1 04:35:55 10° N 04:41:17 42° WNW 04:42:18 39° W
STARLINK-80 3.8 04:41:06 42° SSW 04:42:07 59° SE 04:45:54 10° ENE
deb Kosmos-1763 3.9 04:44:29 58° SW 04:45:07 79° WNW 04:48:51 10° NNE
SJ 16-02 1.3 04:41:09 10° SSW 04:45:32 85° ESE 04:49:56 10° NNE
Lacrosse 5 2.1 04:45:07 43° WNW 04:46:06 49° NW 04:51:03 10° NE
ATLAS CENTAUR R/B 4.3 04:44:10 10° SSE 04:48:00 23° ESE 04:51:46 10° ENE
CZ-2C R/B 2.5 04:44:51 10° N 04:49:34 47° WNW 04:52:02 25° SW
Cosmos 2151 3.6 04:45:41 10° S 04:49:53 57° E 04:54:08 10° NNE
ASTEX 1 3.5 04:47:00 10° S 04:51:49 52° W 04:56:42 10° NNW
Shenzhou-11 Module 2.2 04:53:16 55° SE 04:53:16 55° SE 04:55:39 10° E
In-Cosmos 22 Rocket 4.1 04:47:50 10° S 04:53:11 82° E 04:58:41 10° NNE
Cosmos 2082 Rocket 2.6 04:51:59 33° W 04:53:40 41° WNW 04:59:04 10° NNE
Cosmos 1898 Rocket 3.4 04:50:42 10° SSW 04:55:54 72° WNW 05:01:12 10° NNE
H-2A R/B 3.8 04:53:20 10° N 04:55:53 25° NW 04:55:53 25° NW
STARLINK-48 3.7 04:57:57 23° SW 05:00:13 65° SE 05:04:06 10° ENE
PSLV R/B 3.6 04:56:27 10° N 05:00:18 76° WNW 05:04:13 10° SSW
Okean O Rocket 2.6 04:59:28 10° NNE 05:03:42 49° E 05:07:55 10° S
SKYMED 3 4.4 05:00:58 10° S 05:05:19 76° WSW 05:09:41 10° NNW
ATLAS 2AS CENTAUR R/B 3.2 04:58:02 10° NNW 05:05:42 65° NE 05:12:44 10° SE
IDEFIX/ARIANE 42P 4.5 05:05:13 10° NNW 05:06:00 12° NNW 05:06:00 12° NNW
Cosmos 1937 Rocket 3.3 05:03:12 10° SSW 05:08:21 76° WNW 05:13:31 10° NNE
Cosmos 1833 Rocket 3.8 05:12:24 22° WNW 05:13:07 22° NW 05:17:27 10° N
Cosmos 1459 Rocket 3.9 05:12:08 10° SSW 05:18:17 75° W 05:24:35 10° N
USA 116 3.1 05:16:25 10° S 05:19:34 81° WSW 05:22:59 10° NNW
STARLINK-43 3.6 05:18:10 27° W 05:19:52 48° NNW 05:23:31 10° NE
Helios 1A Rocket 3.1 05:16:16 10° NNE 05:20:24 77° ESE 05:24:28 10° S
NOAA 6 4.4 05:15:40 10° NNE 05:20:48 70° ESE 05:25:54 10° S
Lacrosse 5 rocket 3.4 05:21:41 10° NNW 05:23:29 13° NNE 05:25:16 10° NE
Cosmos 2016 Rocket 4.1 05:17:17 10° S 05:23:30 85° E 05:29:52 10° N
SL-16 R/B 2.2 05:20:19 10° NNW 05:26:02 85° WSW 05:31:42 10° SSE
Cosmos 2360 Rocket 3.2 05:22:07 10° NNW 05:27:36 46° ENE 05:33:02 10° SE
ALOS 2.2 05:24:11 10° N 05:28:51 76° WNW 05:33:31 10° SSW
USA 234 4.3 05:23:15 10° E 05:29:05 36° NNE 05:34:57 10° NW
SKYMED 2 4.0 05:25:20 10° S 05:29:26 41° W 05:33:34 10° NNW
Cosmos 1980 Rocket 3.3 05:30:07 16° WNW 05:33:06 24° WSW 05:37:30 10° SSW
Cosmos 2058 4.1 05:31:26 10° SW 05:34:47 23° WNW 05:38:08 10° NNW
Tsikada Rocket 4.3 05:29:14 10° N 05:35:40 75° E 05:42:00 10° SSE
Cosmos 1515 Rocket 3.8 05:31:27 10° N 05:35:48 73° E 05:40:06 10° SSE
Cosmos 2322 Rocket 2.2 05:30:52 10° NNW 05:36:33 82° WSW 05:42:13 10° SSE
Cosmos 1328 Rocket 3.5 05:32:40 10° NNW 05:36:59 67° W 05:41:15 10° S
Cosmos 1743 Rocket 4.2 05:35:26 10° S 05:39:41 59° E 05:43:57 10° NNE
CZ-4B R/B 4.3 05:38:01 10° NNW 05:39:45 15° WNW 05:39:45 15° WNW
Cosmos 2100 Rocket 4.2 05:34:26 10° SSW 05:40:23 47° WNW 05:46:19 10° N
Cosmos 1151 Rocket 3.0 05:37:07 10° NNW 05:41:28 65° W 05:45:46 10° S
SL-08 R/B 4.4 05:41:53 10° SSW 05:48:00 75° W 05:54:07 10° N
STARLINK-27 4.5 05:44:31 10° SW 05:48:32 53° SE 05:52:35 10° ENE
STARLINK-74 4.4 05:46:11 10° SW 05:50:14 55° SE 05:54:18 10° ENE
Cosmos 2298 Rocket 4.0 05:45:55 10° SSW 05:51:13 72° WNW 05:56:32 10° NNE
SL-4 R/B 2.7 05:47:01 11° WNW 05:51:39 61° NNE 05:56:23 10° ESE
STARLINK-39 4.3 05:47:50 10° SW 05:51:54 57° SE 05:55:58 10° ENE
ADEOS Rocket 4.3 05:44:32 10° SE 05:52:05 57° ENE 05:59:21 10° N
STARLINK 4.3 05:49:28 10° SW 05:53:31 59° SE 05:57:37 10° ENE
Cosmos 1802 Rocket 4.3 05:47:37 10° SSW 05:53:49 50° WNW 06:00:04 10° N
STARLINK-42 4.2 05:50:16 10° SW 05:54:20 62° SE 05:58:26 10° ENE
STARLINK-21 4.2 05:51:03 10° SW 05:55:07 61° SE 05:59:13 10° ENE
SL-27 R/B 4.3 05:56:56 10° WNW 05:57:52 11° WNW 05:58:56 10° NW
Cosmos 372 Rocket 3.9 05:53:22 10° SSW 05:58:31 70° WNW 06:03:39 10° NNE
STARLINK-45 3.9 05:54:37 10° SW 05:58:44 71° SE 06:02:52 10° ENE
Cosmos 1408 Rocket 3.9 05:54:45 10° SSW 05:58:51 42° WNW 06:02:59 10° N
COSMOS 2487 2.4 05:56:40 10° SSW 06:00:05 63° WNW 06:03:33 10° NNE
Cosmos 1484 Rocket 4.2 05:57:49 10° NNW 06:00:36 18° WNW 06:03:23 10° WSW
STARLINK-76 4.0 05:57:43 10° SW 06:01:51 68° SE 06:05:58 10° ENE
Cosmos 1408 3.3 05:58:55 10° SW 06:02:15 32° WNW 06:05:37 10° N
CZ-4C R/B 4.4 05:59:54 10° NNW 06:03:13 14° N 06:06:47 10° NE
STARLINK 4.0 05:59:22 10° SW 06:03:28 70° SE 06:07:36 10° ENE
Gbstr 26 Del rocket 3.4 06:00:07 10° W 06:03:39 36° NNW 06:07:10 10° NE
Cosmos 2061 Rocket 4.3 05:58:10 10° SSW 06:04:09 46° WNW 06:10:08 10° N
Cosmos 1500 Rocket 3.6 05:59:51 10° S 06:04:19 83° W 06:08:48 10° N
Cosmos 2333 Rocket 3.7 05:59:07 10° N 06:04:23 34° NE 06:09:36 10° ESE
Cosmos 1400 Rocket 3.1 06:00:17 10° N 06:04:24 76° E 06:08:25 10° SSE
STARLINK-32 3.9 06:01:02 10° SW 06:05:10 73° SE 06:09:19 10° ENE
CZ-4B R/B 3.4 06:00:28 10° N 06:05:38 50° WNW 06:10:53 10° SW
STARLINK-40 3.9 06:02:41 10° SW 06:06:49 75° SE 06:10:57 10° ENE
Cosmos 1892 4.2 06:04:56 10° WSW 06:07:21 16° WNW 06:09:46 10° NNW
Cosmos 1048 Rocket 4.1 06:02:01 10° NNW 06:07:26 83° WSW 06:12:46 10° SSE
Meteor 1-26 Rocket 4.3 06:01:53 10° N 06:07:40 89° ENE 06:13:15 10° S
Cosmos 1606 2.6 06:04:03 10° NNW 06:07:50 68° W 06:11:36 10° S
STARLINK-44 3.8 06:04:22 10° SW 06:08:30 77° SE 06:12:39 10° ENE
STARLINK-67 3.5 06:05:58 10° NW 06:08:30 38° NNE 06:11:00 10° E
STARLINK-36 3.8 06:06:01 10° SW 06:10:10 79° SE 06:14:19 10° ENE
Okean-O 3.8 06:06:50 10° NNE 06:11:09 48° E 06:15:26 10° S
FENGYUN 3A 4.2 06:07:20 10° N 06:12:18 37° WNW 06:17:13 10° SW
